Location: Unspecified
(50.7693°N, 0.0000°E)
Time: 12:29:21
(UTC+00:00)

Vanguard 1 Rocket - Pass Details

Date: 25 June 2019
Orbit: 651 x 4225 km, 34.3° (Epoch: 19 July)

Event Time Altitude Azimuth Distance (km) Brightness Sun altitude
Rises 21:17:46 0° 266° (W) 5,744 12.0 -7.4°
Reaches altitude 10° 21:24:05 10° 248° (WSW) 3,936 10.8 -8.0°
Maximum altitude 21:28:52 15° 218° (SW) 2,954 9.8 -8.5°
Drops below altitude 10° 21:32:34 10° 185° (S) 2,868 9.5 -8.8°
Enters shadow 21:33:52 - 174° (S) 3,021 9.5 -8.9°
